RH
49 51 51 49 44 41 48 49 64 47 59 51 57 57 54 56 54 56 58 58 60 59 58 61 62 62 61 59 58 57 58 59 58 50 45 42 36 29 21 19 20 20 22 24
58 51 51 56 46 45 46 47 53 56 54 55 55 46 46 50 53 59 62 62 61 58 57 59 61 60 57 55 53 55 56 58 59 58 55 53 50 45 34 23 20 21 21 23
65 52 54 52 42 43 44 47 52 57 52 48 49 47 51 52 57 61 61 62 62 61 61 60 57 56 54 52 52 53 51 52 54 55 56 57 58 57 49 39 26 22 21 22
70 64 71 42 40 42 44 43 45 48 48 51 50 47 46 53 62 60 59 57 53 52 54 55 52 48 46 44 46 49 51 53 53 55 56 56 59 58 61 53 45 28 23 23
77 71 54 46 43 42 41 46 50 52 51 52 52 48 49 59 63 63 57 52 52 54 51 48 47 47 42 35 32 34 40 44 49 52 55 58 60 62 58 58 60 49 32 26
79 79 69 44 37 41 47 58 60 60 58 55 55 64 58 60 56 51 51 52 47 43 38 36 36 40 43 37 32 26 31 34 37 42 48 53 56 60 63 58 61 60 55 34
75 74 59 43 49 52 61 71 66 64 64 62 69 74 66 55 49 53 54 52 42 39 35 32 34 37 38 38 32 30 31 31 30 29 32 37 43 52 60 63 60 61 58 58
68 73 72 55 58 63 65 62 63 64 61 57 60 64 55 46 42 42 45 43 36 34 33 37 35 35 35 33 35 36 37 36 33 32 31 31 32 34 45 59 66 59 64 63
59 55 49 54 56 70 75 73 68 58 49 44 41 42 40 42 43 42 45 44 43 43 41 39 37 39 40 37 36 34 35 36 35 33 34 35 37 36 39 47 58 65 66 64
40 31 43 44 48 55 58 54 46 44 45 47 50 49 48 49 43 44 46 45 48 51 52 48 46 46 49 47 47 44 42 43 43 43 38 36 38 43 44 47 55 70 68 73
38 33 33 35 41 47 41 40 44 45 48 47 50 55 55 47 44 44 45 45 49 52 54 53 47 46 55 60 61 57 54 55 52 50 47 44 44 49 48 51 58 71 84 80
34 40 46 40 45 48 52 52 51 52 47 48 55 55 52 49 50 50 53 45 50 58 62 53 51 50 59 68 67 65 64 65 62 59 54 51 51 54 56 57 64 76 89 87
40 38 41 45 49 53 53 45 42 44 46 47 51 59 59 56 52 47 53 48 47 47 55 66 53 52 58 79 79 80 79 76 72 68 65 60 59 59 62 66 72 82 95 96
41 48 49 56 53 46 48 52 52 54 57 56 57 54 57 60 58 61 59 52 50 48 48 52 58 53 61 89 94 91 88 85 81 78 76 74 74 72 67 74 80 88 99 98
58 65 62 56 54 57 59 54 47 45 46 46 50 52 52 51 56 60 67 67 57 53 53 50 49 51 58 73 90 92 96 94 93 89 91 87 83 84 74 76 83 95 98 98
81 75 68 66 62 58 58 56 56 52 48 46 44 42 44 46 46 46 50 65 61 52 53 50 48 47 50 66 78 84 89 91 95 95 95 96 94 91 87 77 81 92 98 98
81 77 72 70 67 63 62 60 61 57 54 48 42 40 38 35 36 37 45 51 51 52 52 51 48 44 44 56 72 76 81 86 92 96 97 96 98 93 87 80 80 90 98 98
84 76 73 68 68 66 63 64 60 58 59 54 49 46 41 37 35 29 28 31 43 52 56 51 45 42 39 44 62 72 80 88 91 96 98 97 97 98 94 83 84 88 97 98
59 60 60 59 55 54 56 55 55 56 54 51 50 47 41 35 32 29 26 30 31 37 43 55 55 48 38 36 52 68 80 89 91 96 98 98 98 98 98 92 90 93 98 98
52 51 50 50 48 47 50 48 49 51 49 48 48 44 41 36 35 35 32 29 29 33 38 44 50 48 42 41 53 67 80 89 91 96 98 98 98 98 98 98 97 96 98 98
54 48 43 41 40 42 41 43 48 47 47 50 47 42 41 39 42 45 40 34 27 36 43 46 50 48 42 43 56 71 86 92 95 98 98 98 98 98 97 98 97 97 98 97
47 45 43 42 47 53 51 51 51 50 46 44 43 42 43 46 48 46 42 41 35 48 49 46 49 44 45 51 64 79 92 96 98 98 98 98 98 97 97 97 98 97 98 98
47 48 46 45 45 56 59 54 52 54 49 45 43 47 52 51 51 58 54 59 58 58 54 52 49 42 48 59 72 91 95 97 98 98 98 98 98 98 97 97 97 98 97 98
47 47 47 47 48 50 53 53 56 52 48 46 52 56 59 61 59 72 70 66 65 62 61 57 45 46 60 72 89 96 97 98 98 98 98 98 98 97 97 97 97 98 97 98
50 50 50 50 50 45 48 48 48 47 47 52 56 58 63 70 76 76 78 73 69 71 61 49 45 66 80 96 97 97 98 98 98 98 98 98 98 97 97 97 97 97 98 98
52 52 51 50 51 49 48 50 53 54 56 56 57 63 73 80 86 90 87 81 77 68 60 53 72 91 98 98 98 98 98 98 98 98 98 98 98 97 98 98 97 97 98 98
51 49 47 48 46 47 52 55 58 58 61 66 71 82 90 94 95 92 90 79 69 71 63 75 97 98 98 98 98 98 98 98 98 98 97 97 98 98 97 98 98 97 97 97